,,,PA_Meas_PMT16A,,PR_Meas_QMR101_102,,RH_Meas_QMH101,,SR_Meas_QMS101,,TA_Meas_QMH101,,GenWind,,GenWind,
date,time,status,PA,status,PR,status,RH,status,SR,status,TA,status,DirAvg,status,SpdAvg,
2010-07-14, 00:00:04,VALID,1003.85,VALID,0,VALID,83.7193,VALID,0,VALID,26.194,VALID,2,VALID,1.47109,
2010-07-14, 00:01:04,VALID,1003.87,VALID,0,VALID,83.5515,VALID,0.100563,VALID,26.2329,VALID,3,VALID,1.25703,
2010-07-14, 00:02:04,VALID,1003.89,VALID,0,VALID,83.4523,VALID,0.100563,VALID,26.2913,VALID,42,VALID,1.08086,
2010-07-14, 00:03:04,VALID,1003.86,VALID,0,VALID,83.2692,VALID,0.100563,VALID,26.2719,VALID,14,VALID,0.519922,
2010-07-14, 00:04:04,VALID,1003.86,VALID,0,VALID,83.376,VALID,0,VALID,26.2719,VALID,48,VALID,0.430859,
2010-07-14, 00:05:04,VALID,1003.84,VALID,0,VALID,83.4294,VALID,0,VALID,26.2719,VALID,28,VALID,0.361328,
2010-07-14, 00:06:04,VALID,1003.87,VALID,0,VALID,83.5134,VALID,0,VALID,26.2524,VALID,29,VALID,1.02148,
2010-07-14, 00:07:04,VALID,1003.88,VALID,0,VALID,83.3608,VALID,0,VALID,26.2329,VALID,22,VALID,0.494922,
2010-07-14, 00:08:04,VALID,1003.9,VALID,0,VALID,83.3455,VALID,0.100563,VALID,26.2524,VALID,43,VALID,0.606641,
2010-07-14, 00:09:04,VALID,1003.86,VALID,0,VALID,83.4218,VALID,0,VALID,26.2524,VALID,30,VALID,0.482812,
2010-07-14, 00:10:04,VALID,1003.85,VALID,0,VALID,83.6812,VALID,0,VALID,26.2134,VALID,14,VALID,0.585156,
2010-07-14, 00:11:04,VALID,1003.85,VALID,0,VALID,83.8719,VALID,0,VALID,26.153,VALID,16,VALID,0.411719,
2010-07-14, 00:12:04,VALID,1003.83,VALID,0,VALID,84.1008,VALID,0.100563,VALID,26.116,VALID,32,VALID,0.951172,
2010-07-14, 00:13:04,VALID,1003.84,VALID,0,VALID,84.467,VALID,0,VALID,26.0576,VALID,41,VALID,0.780469,
2010-07-14, 00:14:04,VALID,1003.8,VALID,0,VALID,84.6653,VALID,0,VALID,25.9972,VALID,29,VALID,0.944141,
2010-07-14, 00:15:04,VALID,1003.81,VALID,0,VALID,84.7874,VALID,0,VALID,25.9992,VALID,25,VALID,0.658594,
2010-07-14, 00:16:04,VALID,1003.83,VALID,0,VALID,84.856,VALID,0,VALID,25.9992,VALID,43,VALID,1.08984,
2010-07-14, 00:17:04,VALID,1003.81,VALID,0,VALID,84.7111,VALID,0,VALID,26.0596,VALID,15,VALID,0.715234,
2010-07-14, 00:18:04,VALID,1003.83,VALID,0,VALID,84.7721,VALID,0,VALID,26.0401,VALID,25,VALID,0.096875,
2010-07-14, 00:19:04,VALID,1003.86,VALID,0,VALID,84.9018,VALID,0,VALID,25.9797,VALID,28,VALID,0.351563,
2010-07-14, 00:20:04,VALID,1003.87,VALID,0,VALID,85.1002,VALID,0,VALID,25.9193,VALID,8,VALID,0.720312,
2010-07-14, 00:21:04,VALID,1003.85,VALID,0,VALID,85.1917,VALID,0.100563,VALID,25.9602,VALID,14,VALID,0.753125,
2010-07-14, 00:22:04,VALID,1003.87,VALID,0,VALID,85.2451,VALID,0.100563,VALID,25.9213,VALID,22,VALID,1.05469,
2010-07-14, 00:23:04,VALID,1003.86,VALID,0,VALID,85.1383,VALID,0.100563,VALID,25.9388,VALID,354,VALID,1.71523,
2010-07-14, 00:24:04,VALID,1003.85,VALID,0,VALID,84.9247,VALID,0,VALID,25.9992,VALID,357,VALID,1.19961,
2010-07-14, 00:25:04,VALID,1003.83,VALID,0,VALID,84.8103,VALID,0,VALID,26.0187,VALID,1,VALID,1.12617,
2010-07-14, 00:26:04,VALID,1003.84,VALID,0,VALID,84.9476,VALID,0,VALID,25.9992,VALID,23,VALID,0.721875,
2010-07-14, 00:27:04,VALID,1003.81,VALID,0,VALID,85.268,VALID,0,VALID,25.9213,VALID,27,VALID,0.68125,
2010-07-14, 00:28:04,VALID,1003.84,VALID,0,VALID,85.4969,VALID,0,VALID,25.9038,VALID,5,VALID,0.84375,
2010-07-14, 00:29:04,VALID,1003.81,VALID,0,VALID,85.6876,VALID,0,VALID,25.8629,VALID,356,VALID,1.04141,
2010-07-14, 00:30:04,VALID,1003.82,VALID,0,VALID,85.7486,VALID,0,VALID,25.8648,VALID,21,VALID,0.75625,
2010-07-14, 00:31:04,VALID,1003.8,VALID,0,VALID,85.9393,VALID,0,VALID,25.8434,VALID,16,VALID,0.905469,
2010-07-14, 00:32:04,VALID,1003.78,VALID,0,VALID,85.8707,VALID,0.100563,VALID,25.8823,VALID,13,VALID,0.935156,
2010-07-14, 00:33:04,VALID,1003.74,VALID,0,VALID,85.8173,VALID,0,VALID,25.9427,VALID,45,VALID,0.682422,
2010-07-14, 00:34:04,VALID,1003.74,VALID,0,VALID,85.6418,VALID,0.100563,VALID,25.9408,VALID,6,VALID,1.0457,
2010-07-14, 00:35:04,VALID,1003.7,VALID,0,VALID,85.6189,VALID,0,VALID,25.9193,VALID,16,VALID,1.94727,
2010-07-14, 00:36:04,VALID,1003.73,VALID,0,VALID,85.4129,VALID,0.100563,VALID,25.9992,VALID,9,VALID,1.30859,
2010-07-14, 00:37:04,VALID,1003.69,VALID,0,VALID,84.9476,VALID,0,VALID,26.0771,VALID,8,VALID,1.3043,
2010-07-14, 00:38:04,VALID,1003.7,VALID,0,VALID,84.7111,VALID,0.100563,VALID,26.1355,VALID,17,VALID,0.747266,
2010-07-14, 00:39:04,VALID,1003.67,VALID,0,VALID,84.589,VALID,0.100563,VALID,26.155,VALID,15,VALID,1.03008,
2010-07-14, 00:40:04,VALID,1003.66,VALID,0,VALID,84.5127,VALID,0,VALID,26.155,VALID,18,VALID,0.905078,
2010-07-14, 00:41:04,VALID,1003.64,VALID,0,VALID,84.4212,VALID,0.100563,VALID,26.155,VALID,26,VALID,1.46172,
2010-07-14, 00:42:04,VALID,1003.62,VALID,0,VALID,84.3754,VALID,0,VALID,26.1745,VALID,45,VALID,0.685156,
2010-07-14, 00:43:04,VALID,1003.59,VALID,0,VALID,84.3449,VALID,0,VALID,26.155,VALID,21,VALID,0.500781,
2010-07-14, 00:44:04,VALID,1003.56,VALID,0,VALID,84.5127,VALID,0.100563,VALID,26.1141,VALID,12,VALID,0.725781,
2010-07-14, 00:45:04,VALID,1003.57,VALID,0,VALID,84.6272,VALID,0.100563,VALID,26.1355,VALID,35,VALID,1.09258,
2010-07-14, 00:46:04,VALID,1003.52,VALID,0,VALID,84.4899,VALID,0,VALID,26.157,VALID,26,VALID,0.936719,
2010-07-14, 00:47:04,VALID,1003.49,VALID,0,VALID,84.528,VALID,0,VALID,26.155,VALID,35,VALID,0.786719,
2010-07-14, 00:48:04,VALID,1003.47,VALID,0,VALID,84.6729,VALID,0,VALID,26.116,VALID,14,VALID,1.14531,
2010-07-14, 00:49:04,VALID,1003.47,VALID,0,VALID,84.7721,VALID,0,VALID,26.0966,VALID,1,VALID,1.08594,
2010-07-14, 00:50:04,VALID,1003.47,VALID,0,VALID,84.8866,VALID,0.100563,VALID,26.0556,VALID,18,VALID,1.18008,
2010-07-14, 00:51:04,VALID,1003.46,VALID,0,VALID,84.9781,VALID,0,VALID,26.0576,VALID,356,VALID,0.858984,
2010-07-14, 00:52:04,VALID,1003.44,VALID,0,VALID,85.0849,VALID,0,VALID,26.0771,VALID,15,VALID,1.15039,
2010-07-14, 00:53:04,VALID,1003.46,VALID,0,VALID,85.0162,VALID,0,VALID,26.0576,VALID,54,VALID,0.921875,
2010-07-14, 00:54:04,VALID,1003.49,VALID,0,VALID,84.94,VALID,0.100563,VALID,26.0966,VALID,27,VALID,0.9125,
2010-07-14, 00:55:04,VALID,1003.47,VALID,0,VALID,84.8942,VALID,0,VALID,26.0966,VALID,45,VALID,1.18125,
2010-07-14, 00:56:04,VALID,1003.48,VALID,0,VALID,84.7416,VALID,0,VALID,26.1355,VALID,25,VALID,0.803516,
2010-07-14, 00:57:04,VALID,1003.49,VALID,0,VALID,84.7035,VALID,0,VALID,26.1355,VALID,22,VALID,1.30313,
2010-07-14, 00:58:04,VALID,1003.48,VALID,0,VALID,84.6348,VALID,0.100563,VALID,26.1745,VALID,32,VALID,0.838281,
2010-07-14, 00:59:04,VALID,1003.48,VALID,0,VALID,84.383,VALID,0,VALID,26.2114,VALID,33,VALID,0.908594,
2010-07-14, 01:00:04,VALID,1003.45,VALID,0,VALID,84.2762,VALID,0.100563,VALID,26.2524,VALID,348,VALID,1.1707,
2010-07-14, 01:01:04,VALID,1003.49,VALID,0,VALID,84.1771,VALID,0,VALID,26.2759,VALID,38,VALID,1.03086,
2010-07-14, 01:02:04,VALID,1003.51,VALID,0,VALID,84.1618,VALID,0,VALID,26.2933,VALID,27,VALID,0.678125,
2010-07-14, 01:03:04,VALID,1003.51,VALID,0,VALID,84.2,VALID,0,VALID,26.2524,VALID,28,VALID,1.37383,
2010-07-14, 01:04:04,VALID,1003.53,VALID,0,VALID,84.1923,VALID,0,VALID,26.3148,VALID,30,VALID,0.964844,
2010-07-14, 01:05:04,VALID,1003.54,VALID,0,VALID,84.2076,VALID,0,VALID,26.2933,VALID,71,VALID,1.25,
2010-07-14, 01:06:04,VALID,1003.55,VALID,0,VALID,84.1771,VALID,0,VALID,26.3128,VALID,30,VALID,0.841797,
2010-07-14, 01:07:04,VALID,1003.55,VALID,0,VALID,84.2076,VALID,0,VALID,26.2933,VALID,1,VALID,0.685547,
2010-07-14, 01:08:04,VALID,1003.55,VALID,0,VALID,84.2228,VALID,0,VALID,26.2933,VALID,36,VALID,0.770312,
2010-07-14, 01:09:04,VALID,1003.53,VALID,0,VALID,84.1771,VALID,0,VALID,26.3323,VALID,3,VALID,1.43984,
2010-07-14, 01:10:04,VALID,1003.53,VALID,0,VALID,84.1313,VALID,0,VALID,26.3323,VALID,7,VALID,0.692578,
2010-07-14, 01:11:04,VALID,1003.54,VALID,0,VALID,84.1542,VALID,0,VALID,26.3128,VALID,65,VALID,0.775391,
2010-07-14, 01:12:04,VALID,1003.53,VALID,0,VALID,84.1923,VALID,0,VALID,26.3128,VALID,39,VALID,0.359375,
2010-07-14, 01:13:04,VALID,1003.57,VALID,0,VALID,84.2762,VALID,0,VALID,26.2933,VALID,36,VALID,0.730078,
2010-07-14, 01:14:04,VALID,1003.6,VALID,0,VALID,84.4288,VALID,0,VALID,26.2759,VALID,31,VALID,0.671094,
2010-07-14, 01:15:04,VALID,1003.59,VALID,0,VALID,84.4975,VALID,0,VALID,26.2349,VALID,18,VALID,0.263672,
2010-07-14, 01:16:04,VALID,1003.63,VALID,0,VALID,84.5738,VALID,0.100563,VALID,26.2134,VALID,7,VALID,0.423828,
2010-07-14, 01:17:04,VALID,1003.63,VALID,0,VALID,84.734,VALID,0,VALID,26.155,VALID,7,VALID,0.260547,
2010-07-14, 01:18:04,VALID,1003.67,VALID,0,VALID,84.9781,VALID,0.100563,VALID,26.155,VALID,19,VALID,1.18867,
2010-07-14, 01:19:04,VALID,1003.66,VALID,0,VALID,85.0162,VALID,0,VALID,26.155,VALID,24,VALID,0.775781,
2010-07-14, 01:20:04,VALID,1003.65,VALID,0,VALID,85.0925,VALID,0.100563,VALID,26.1335,VALID,15,VALID,0.917188,
2010-07-14, 01:21:04,VALID,1003.66,VALID,0,VALID,85.0162,VALID,0.100563,VALID,26.155,VALID,16,VALID,0.567969,
2010-07-14, 01:22:04,VALID,1003.63,VALID,0,VALID,84.9705,VALID,0,VALID,26.155,VALID,18,VALID,0.720703,
2010-07-14, 01:23:04,VALID,1003.59,VALID,0,VALID,84.9781,VALID,0,VALID,26.155,VALID,333,VALID,1.19062,
2010-07-14, 01:24:04,VALID,1003.59,VALID,0,VALID,84.8408,VALID,0.100563,VALID,26.1725,VALID,22,VALID,0.911328,
2010-07-14, 01:25:04,VALID,1003.56,VALID,0,VALID,84.8866,VALID,0,VALID,26.1745,VALID,25,VALID,0.559766,
2010-07-14, 01:26:04,VALID,1003.53,VALID,0,VALID,84.8866,VALID,0.100563,VALID,26.1725,VALID,31,VALID,0.733203,
2010-07-14, 01:27:04,VALID,1003.49,VALID,0,VALID,84.7569,VALID,0.100563,VALID,26.2134,VALID,358,VALID,0.619531,
2010-07-14, 01:28:04,VALID,1003.46,VALID,0,VALID,84.7187,VALID,0,VALID,26.1745,VALID,358,VALID,0.402734,
2010-07-14, 01:29:04,VALID,1003.42,VALID,0,VALID,84.8255,VALID,0.100563,VALID,26.1745,VALID,357,VALID,0.330469,
2010-07-14, 01:30:04,VALID,1003.41,VALID,0,VALID,84.8789,VALID,0.100563,VALID,26.155,VALID,360,VALID,0.661719,
2010-07-14, 01:31:04,VALID,1003.35,VALID,0,VALID,85.0239,VALID,0,VALID,26.118,VALID,18,VALID,0.528516,
2010-07-14, 01:32:04,VALID,1003.32,VALID,0,VALID,85.1536,VALID,0,VALID,26.0985,VALID,23,VALID,0.639453,
2010-07-14, 01:33:04,VALID,1003.28,VALID,0,VALID,85.3138,VALID,0,VALID,26.0596,VALID,25,VALID,0.655078,
2010-07-14, 01:34:04,VALID,1003.24,VALID,0,VALID,85.4969,VALID,0,VALID,26.0012,VALID,25,VALID,0.624219,
2010-07-14, 01:35:04,VALID,1003.23,VALID,0,VALID,85.6342,VALID,0,VALID,26.0012,VALID,17,VALID,1.14844,
2010-07-14, 01:36:04,VALID,1003.17,VALID,0,VALID,85.6037,VALID,0,VALID,26.0401,VALID,20,VALID,0.725391,
2010-07-14, 01:37:04,VALID,1003.19,VALID,0,VALID,85.4511,VALID,0,VALID,26.0596,VALID,42,VALID,1.16094,
2010-07-14, 01:38:04,VALID,1003.18,VALID,0,VALID,85.3061,VALID,0,VALID,26.0596,VALID,29,VALID,0.5125,
2010-07-14, 01:39:04,VALID,1003.17,VALID,0,VALID,85.4587,VALID,0,VALID,26.0206,VALID,38,VALID,0.666797,
2010-07-14, 01:40:04,VALID,1003.18,VALID,0,VALID,85.5732,VALID,0,VALID,26.0031,VALID,13,VALID,0.555078,
2010-07-14, 01:41:04,VALID,1003.15,VALID,0,VALID,85.7334,VALID,0,VALID,25.9622,VALID,24,VALID,0.259375,
2010-07-14, 01:42:04,VALID,1003.12,VALID,0,VALID,85.8936,VALID,0,VALID,25.9232,VALID,24,VALID,0.416016,
2010-07-14, 01:43:04,VALID,1003.11,VALID,0,VALID,86.1606,VALID,0,VALID,25.8843,VALID,24,VALID,0.476953,
2010-07-14, 01:44:04,VALID,1003.09,VALID,0,VALID,86.3894,VALID,0,VALID,25.9038,VALID,3,VALID,1.43789,
2010-07-14, 01:45:04,VALID,1003.06,VALID,0,VALID,86.1835,VALID,0,VALID,26.0012,VALID,33,VALID,1.23242,
2010-07-14, 01:46:04,VALID,1003.04,VALID,0,VALID,85.596,VALID,0,VALID,26.118,VALID,43,VALID,0.487891,
2010-07-14, 01:47:04,VALID,1003.01,VALID,0,VALID,85.3061,VALID,0,VALID,26.118,VALID,61,VALID,0.536328,
2010-07-14, 01:48:04,VALID,1003.01,VALID,0,VALID,85.2833,VALID,0,VALID,26.1375,VALID,30,VALID,0.580859,
2010-07-14, 01:49:04,VALID,1002.97,VALID,0,VALID,85.268,VALID,0,VALID,26.0985,VALID,30,VALID,0.355078,
2010-07-14, 01:50:04,VALID,1002.99,VALID,0,VALID,85.3977,VALID,0,VALID,26.0791,VALID,31,VALID,0.112109,
2010-07-14, 01:51:04,VALID,1003.01,VALID,0,VALID,85.4587,VALID,0,VALID,26.0401,VALID,72,VALID,0.312891,
2010-07-14, 01:52:04,VALID,1003.03,VALID,0,VALID,85.6647,VALID,0,VALID,26.0401,VALID,33,VALID,0.615625,
2010-07-14, 01:53:04,VALID,1002.98,VALID,0,VALID,85.6571,VALID,0,VALID,26.0401,VALID,65,VALID,0.680859,
2010-07-14, 01:54:04,VALID,1002.98,VALID,0,VALID,85.7791,VALID,0,VALID,26.0012,VALID,28,VALID,0.641016,
2010-07-14, 01:55:04,VALID,1002.94,VALID,0,VALID,85.8325,VALID,0,VALID,26.0206,VALID,126,VALID,0.591406,
2010-07-14, 01:56:04,VALID,1002.91,VALID,0,VALID,85.802,VALID,0,VALID,26.0596,VALID,21,VALID,0.939062,
2010-07-14, 01:57:04,VALID,1002.9,VALID,0,VALID,85.6266,VALID,0,VALID,26.0985,VALID,26,VALID,1.49531,
2010-07-14, 01:58:04,VALID,1002.84,VALID,0,VALID,85.3595,VALID,0,VALID,26.1979,VALID,9,VALID,1.51211,
2010-07-14, 01:59:04,VALID,1002.82,VALID,0,VALID,84.9323,VALID,0,VALID,26.2739,VALID,41,VALID,0.908984,
2010-07-14, 02:00:04,VALID,1002.78,VALID,0,VALID,84.5433,VALID,0,VALID,26.3323,VALID,26,VALID,1.03398,
2010-07-14, 02:01:04,VALID,1002.76,VALID,0,VALID,84.4364,VALID,0,VALID,26.3478,VALID,52,VALID,0.748438,
2010-07-14, 02:02:04,VALID,1002.72,VALID,0,VALID,84.3373,VALID,0,VALID,26.3498,VALID,348,VALID,1.34102,
2010-07-14, 02:03:04,VALID,1002.7,VALID,0,VALID,84.3754,VALID,0,VALID,26.3498,VALID,5,VALID,1.47344,
2010-07-14, 02:04:04,VALID,1002.67,VALID,0,VALID,84.1923,VALID,0,VALID,26.3887,VALID,10,VALID,0.839844,
2010-07-14, 02:05:04,VALID,1002.65,VALID,0,VALID,84.0626,VALID,0.100563,VALID,26.4277,VALID,24,VALID,1.36289,
2010-07-14, 02:06:04,VALID,1002.65,VALID,0,VALID,84.0169,VALID,0,VALID,26.4277,VALID,5,VALID,1.18828,
2010-07-14, 02:07:04,VALID,1002.67,VALID,0,VALID,83.994,VALID,0,VALID,26.4472,VALID,68,VALID,0.956641,
2010-07-14, 02:08:04,VALID,1002.67,VALID,0,VALID,83.9558,VALID,0,VALID,26.4881,VALID,353,VALID,1.10391,
2010-07-14, 02:09:04,VALID,1002.67,VALID,0,VALID,83.9101,VALID,0.100563,VALID,26.5056,VALID,57,VALID,0.571484,
2010-07-14, 02:10:04,VALID,1002.67,VALID,0,VALID,83.8643,VALID,0.100563,VALID,26.5251,VALID,72,VALID,0.549609,
2010-07-14, 02:11:04,VALID,1002.7,VALID,0,VALID,83.7956,VALID,0.100563,VALID,26.5251,VALID,14,VALID,0.173047,
2010-07-14, 02:12:04,VALID,1002.71,VALID,0,VALID,83.8414,VALID,0.100563,VALID,26.5251,VALID,24,VALID,0.492969,
2010-07-14, 02:13:04,VALID,1002.75,VALID,0,VALID,83.8338,VALID,0,VALID,26.5056,VALID,20,VALID,0.5625,
2010-07-14, 02:14:04,VALID,1002.78,VALID,0,VALID,83.8948,VALID,0,VALID,26.5056,VALID,51,VALID,0.633203,
2010-07-14, 02:15:04,VALID,1002.8,VALID,0,VALID,83.9482,VALID,0.100563,VALID,26.4472,VALID,25,VALID,0.221094,
2010-07-14, 02:16:04,VALID,1002.8,VALID,0,VALID,84.055,VALID,0,VALID,26.4277,VALID,57,VALID,0.692578,
2010-07-14, 02:17:04,VALID,1002.82,VALID,0,VALID,84.1313,VALID,0,VALID,26.4257,VALID,57,VALID,0.355078,
2010-07-14, 02:18:04,VALID,1002.81,VALID,0,VALID,84.2686,VALID,0,VALID,26.3887,VALID,56,VALID,0.0824219,
2010-07-14, 02:19:04,VALID,1002.81,VALID,0,VALID,84.3754,VALID,0,VALID,26.3498,VALID,56,VALID,0.111328,
2010-07-14, 02:20:04,VALID,1002.78,VALID,0,VALID,84.6348,VALID,0,VALID,26.3108,VALID,14,VALID,0.59375,
2010-07-14, 02:21:04,VALID,1002.78,VALID,0,VALID,84.8103,VALID,0,VALID,26.2699,VALID,15,VALID,0.244141,
2010-07-14, 02:22:04,VALID,1002.79,VALID,0,VALID,84.8789,VALID,0,VALID,26.2719,VALID,20,VALID,0.525781,
2010-07-14, 02:23:04,VALID,1002.81,VALID,0,VALID,84.94,VALID,0,VALID,26.2524,VALID,10,VALID,0.396094,
2010-07-14, 02:24:04,VALID,1002.81,VALID,0,VALID,85.0773,VALID,0,VALID,26.2524,VALID,10,VALID,0.700391,
2010-07-14, 02:25:04,VALID,1002.86,VALID,0,VALID,84.9857,VALID,0,VALID,26.2719,VALID,59,VALID,0.481641,
2010-07-14, 02:26:04,VALID,1002.93,VALID,0,VALID,84.9247,VALID,0,VALID,26.2504,VALID,114,VALID,0.789844,
2010-07-14, 02:27:04,VALID,1002.96,VALID,0,VALID,84.8637,VALID,0.100563,VALID,26.2719,VALID,121,VALID,0.883984,
2010-07-14, 02:28:04,VALID,1002.95,VALID,0,VALID,84.9934,VALID,0,VALID,26.2524,VALID,135,VALID,1.09687,
2010-07-14, 02:29:04,VALID,1002.99,VALID,0,VALID,84.9247,VALID,0,VALID,26.2719,VALID,107,VALID,0.935938,
2010-07-14, 02:30:04,VALID,1002.95,VALID,0,VALID,84.9018,VALID,0,VALID,26.2524,VALID,98,VALID,0.471094,
2010-07-14, 02:31:04,VALID,1002.93,VALID,0,VALID,84.9552,VALID,0,VALID,26.2329,VALID,108,VALID,0.194141,
2010-07-14, 02:32:04,VALID,1002.9,VALID,0,VALID,85.0315,VALID,0.100563,VALID,26.194,VALID,108,VALID,0.0164062,
2010-07-14, 02:33:04,VALID,1002.87,VALID,0,VALID,85.1536,VALID,0,VALID,26.1745,VALID,26,VALID,0.4875,
2010-07-14, 02:34:04,VALID,1002.86,VALID,0,VALID,85.3519,VALID,0,VALID,26.116,VALID,15,VALID,0.692187,
2010-07-14, 02:35:04,VALID,1002.84,VALID,0,VALID,85.535,VALID,0,VALID,26.0576,VALID,20,VALID,0.653516,
2010-07-14, 02:36:04,VALID,1002.8,VALID,0,VALID,85.7105,VALID,0,VALID,26.0187,VALID,18,VALID,0.64375,
2010-07-14, 02:37:04,VALID,1002.75,VALID,0,VALID,86.0461,VALID,0,VALID,25.9018,VALID,7,VALID,0.833984,
2010-07-14, 02:38:04,VALID,1002.69,VALID,0,VALID,86.6412,VALID,0,VALID,25.8239,VALID,19,VALID,1.25156,
2010-07-14, 02:39:04,VALID,1002.65,VALID,0,VALID,86.8472,VALID,0,VALID,25.8434,VALID,13,VALID,1.51094,
2010-07-14, 02:40:04,VALID,1002.64,VALID,0,VALID,86.7709,VALID,0.100563,VALID,25.8823,VALID,21,VALID,1.02539,
2010-07-14, 02:41:04,VALID,1002.6,VALID,0,VALID,86.5344,VALID,0.100563,VALID,25.9213,VALID,11,VALID,1.03984,
2010-07-14, 02:42:04,VALID,1002.54,VALID,0,VALID,86.4962,VALID,0.100563,VALID,25.9213,VALID,15,VALID,0.851172,
2010-07-14, 02:43:04,VALID,1002.54,VALID,0,VALID,86.5496,VALID,0.100563,VALID,25.9427,VALID,21,VALID,1.29531,
2010-07-14, 02:44:04,VALID,1002.48,VALID,0,VALID,86.4352,VALID,0,VALID,25.9992,VALID,9,VALID,1.21289,
2010-07-14, 02:45:04,VALID,1002.54,VALID,0,VALID,86.1148,VALID,0.100563,VALID,26.0381,VALID,5,VALID,0.550391,
2010-07-14, 02:46:04,VALID,1002.55,VALID,0,VALID,85.9699,VALID,0,VALID,26.0576,VALID,5,VALID,0.303125,
2010-07-14, 02:47:04,VALID,1002.61,VALID,0,VALID,86.0156,VALID,0,VALID,26.0576,VALID,3,VALID,0.368359,
2010-07-14, 02:48:04,VALID,1002.62,VALID,0,VALID,85.9241,VALID,0,VALID,26.0576,VALID,3,VALID,0.107031,
2010-07-14, 02:49:04,VALID,1002.68,VALID,0,VALID,85.9775,VALID,0,VALID,26.0771,VALID,12,VALID,0.751172,
2010-07-14, 02:50:04,VALID,1002.72,VALID,0,VALID,85.7639,VALID,0.100563,VALID,26.1355,VALID,10,VALID,0.24375,
2010-07-14, 02:51:04,VALID,1002.77,VALID,0,VALID,85.535,VALID,0,VALID,26.1745,VALID,359,VALID,0.585938,
2010-07-14, 02:52:04,VALID,1002.81,VALID,0,VALID,85.4816,VALID,0,VALID,26.1745,VALID,104,VALID,0.721875,
2010-07-14, 02:53:04,VALID,1002.83,VALID,0,VALID,85.4511,VALID,0,VALID,26.1745,VALID,112,VALID,0.310937,
2010-07-14, 02:54:04,VALID,1002.86,VALID,0,VALID,85.5655,VALID,0.100563,VALID,26.1355,VALID,121,VALID,0.474219,
2010-07-14, 02:55:04,VALID,1002.88,VALID,0,VALID,85.6876,VALID,0.100563,VALID,26.0946,VALID,121,VALID,0.0644531,
2010-07-14, 02:56:04,VALID,1002.87,VALID,0,VALID,85.7257,VALID,0.100563,VALID,26.0362,VALID,121,VALID,0,
2010-07-14, 02:57:04,VALID,1002.87,VALID,0,VALID,85.8631,VALID,0.100563,VALID,26.0167,VALID,121,VALID,0,
2010-07-14, 02:58:04,VALID,1002.84,VALID,0,VALID,85.947,VALID,0,VALID,25.9992,VALID,121,VALID,0,
2010-07-14, 02:59:04,VALID,1002.8,VALID,0,VALID,86.0843,VALID,0,VALID,25.9797,VALID,121,VALID,0.00351562,
2010-07-14, 03:00:04,VALID,1002.8,VALID,0,VALID,86.3284,VALID,0,VALID,25.9213,VALID,18,VALID,0.725781,
2010-07-14, 03:01:04,VALID,1002.75,VALID,0,VALID,86.7556,VALID,0,VALID,25.7655,VALID,7,VALID,0.763281,
2010-07-14, 03:02:04,VALID,1002.7,VALID,0,VALID,87.1294,VALID,0,VALID,25.6292,VALID,6,VALID,0.869141,
2010-07-14, 03:03:04,VALID,1002.69,VALID,0,VALID,87.8313,VALID,0,VALID,25.4714,VALID,5,VALID,1.02578,
2010-07-14, 03:04:04,VALID,1002.63,VALID,0,VALID,89.0519,VALID,0,VALID,25.4539,VALID,351,VALID,0.898047,
2010-07-14, 03:05:04,VALID,1002.6,VALID,0,VALID,89.1206,VALID,0,VALID,25.4344,VALID,18,VALID,0.779688,
2010-07-14, 03:06:04,VALID,1002.56,VALID,0,VALID,89.3342,VALID,0,VALID,25.376,VALID,19,VALID,0.746875,
2010-07-14, 03:07:04,VALID,1002.5,VALID,0,VALID,90.0208,VALID,0,VALID,25.376,VALID,23,VALID,1.31797,
2010-07-14, 03:08:04,VALID,1002.48,VALID,0,VALID,91.8822,VALID,0,VALID,25.4344,VALID,30,VALID,1.33047,
2010-07-14, 03:09:04,VALID,1002.46,VALID,0,VALID,89.853,VALID,0,VALID,25.5727,VALID,65,VALID,0.525391,
2010-07-14, 03:10:04,VALID,1002.51,VALID,0,VALID,88.9299,VALID,0,VALID,25.709,VALID,31,VALID,0.977734,
2010-07-14, 03:11:04,VALID,1002.47,VALID,0,VALID,87.9991,VALID,0,VALID,25.8064,VALID,5,VALID,1.08672,
2010-07-14, 03:12:04,VALID,1002.53,VALID,0,VALID,87.4041,VALID,0,VALID,25.8843,VALID,15,VALID,0.896094,
2010-07-14, 03:13:04,VALID,1002.58,VALID,0,VALID,86.954,VALID,0,VALID,25.9622,VALID,24,VALID,0.692187,
2010-07-14, 03:14:04,VALID,1002.59,VALID,0,VALID,86.6717,VALID,0,VALID,26.0187,VALID,26,VALID,0.974219,
2010-07-14, 03:15:04,VALID,1002.6,VALID,0,VALID,86.2979,VALID,0,VALID,26.0576,VALID,39,VALID,0.532031,
2010-07-14, 03:16:04,VALID,1002.59,VALID,0,VALID,86.0995,VALID,0,VALID,26.0791,VALID,48,VALID,0.111719,
2010-07-14, 03:17:04,VALID,1002.58,VALID,0,VALID,86.0767,VALID,0,VALID,26.0556,VALID,48,VALID,0.0554687,
2010-07-14, 03:18:04,VALID,1002.55,VALID,0,VALID,86.1301,VALID,0,VALID,26.0771,VALID,360,VALID,0.621094,
2010-07-14, 03:19:04,VALID,1002.53,VALID,0,VALID,86.0461,VALID,0.100563,VALID,26.0985,VALID,355,VALID,0.539844,
2010-07-14, 03:20:04,VALID,1002.54,VALID,0,VALID,85.8478,VALID,0,VALID,26.116,VALID,355,VALID,0.273828,
2010-07-14, 03:21:04,VALID,1002.55,VALID,0,VALID,85.6494,VALID,0,VALID,26.0946,VALID,354,VALID,0.432422,
2010-07-14, 03:22:04,VALID,1002.63,VALID,0,VALID,85.6266,VALID,0,VALID,26.116,VALID,17,VALID,0.712109,
2010-07-14, 03:23:04,VALID,1002.64,VALID,0,VALID,85.5579,VALID,0,VALID,26.1355,VALID,20,VALID,0.478125,
2010-07-14, 03:24:04,VALID,1002.68,VALID,0,VALID,85.5503,VALID,0,VALID,26.1765,VALID,8,VALID,0.775391,
2010-07-14, 03:25:04,VALID,1002.7,VALID,0,VALID,85.3214,VALID,0.100563,VALID,26.2329,VALID,32,VALID,0.939844,
2010-07-14, 03:26:04,VALID,1002.71,VALID,0,VALID,85.0391,VALID,0,VALID,26.2913,VALID,17,VALID,0.310156,
2010-07-14, 03:27:04,VALID,1002.73,VALID,0,VALID,84.9552,VALID,0,VALID,26.2719,VALID,17,VALID,0.0863281,
2010-07-14, 03:28:04,VALID,1002.75,VALID,0,VALID,85.0391,VALID,0,VALID,26.2349,VALID,17,VALID,0.346094,
2010-07-14, 03:29:04,VALID,1002.78,VALID,0,VALID,85.2451,VALID,0,VALID,26.1745,VALID,17,VALID,0.182812,
2010-07-14, 03:30:04,VALID,1002.79,VALID,0,VALID,85.6189,VALID,0,VALID,26.157,VALID,37,VALID,1.0293,
2010-07-14, 03:31:04,VALID,1002.78,VALID,0,VALID,85.7791,VALID,0,VALID,26.155,VALID,38,VALID,0.391406,
2010-07-14, 03:32:04,VALID,1002.75,VALID,0,VALID,85.7715,VALID,0,VALID,26.1355,VALID,74,VALID,0.452734,
2010-07-14, 03:33:04,VALID,1002.71,VALID,0,VALID,85.8783,VALID,0.100563,VALID,26.116,VALID,23,VALID,0.546094,
2010-07-14, 03:34:04,VALID,1002.78,VALID,0,VALID,86.008,VALID,0,VALID,26.1375,VALID,349,VALID,0.848047,
2010-07-14, 03:35:04,VALID,1002.84,VALID,0,VALID,85.8096,VALID,0,VALID,26.155,VALID,349,VALID,0.494922,
2010-07-14, 03:36:04,VALID,1002.86,VALID,0,VALID,85.8631,VALID,0,VALID,26.116,VALID,6,VALID,0.688281,
2010-07-14, 03:37:04,VALID,1002.9,VALID,0,VALID,86.0156,VALID,0,VALID,26.116,VALID,47,VALID,0.723828,
2010-07-14, 03:38:04,VALID,1002.91,VALID,0,VALID,86.0614,VALID,0,VALID,26.0791,VALID,37,VALID,0.757813,
2010-07-14, 03:39:04,VALID,1002.86,VALID,0,VALID,86.4657,VALID,0,VALID,26.0616,VALID,12,VALID,0.901953,
2010-07-14, 03:40:04,VALID,1002.81,VALID,0,VALID,86.6412,VALID,0,VALID,26.0012,VALID,22,VALID,0.510547,
2010-07-14, 03:41:04,VALID,1002.79,VALID,0,VALID,86.7785,VALID,0,VALID,25.9427,VALID,19,VALID,0.663281,
2010-07-14, 03:42:04,VALID,1002.74,VALID,0,VALID,87.1218,VALID,0,VALID,25.9213,VALID,47,VALID,1.21094,
2010-07-14, 03:43:04,VALID,1002.7,VALID,0,VALID,86.8853,VALID,0,VALID,25.9992,VALID,9,VALID,0.881641,